Current weather by "City, St" or "zip code"  
 

Current Conditions: Fallon, Naval Air Station, NV

Partly Cloudy


43.0 F

Last Updated on Oct 24 2020, 8:56 am PDT
Humidity: 32%
Wind Speed: N 0.0 mph
Barometer 30.05 in
Dewpoint: 15.1 F
Visibility: 10.00 mi
Precip: --
Heat Index: NA
Wind Chill: NA
Current conditions at:

Fallon, Naval Air Station, NV (KNFL)

Lat: 39.43222 Lon: 118.68556

Local Radar Image active severe weather and emergency alerts image image weather storm and storm spotter reports image weather observation monitoring service image
Local
Radar
Active
Alerts
Storm Reports Obs
Monitoring

Sign-up For Email & Text Message Weather Alert Notification Services



Advertise Here

Observation History for Fallon, Naval Air Station, NV


Time Wind
(mph)
Vis
(mi)
Weather Precip (in) Temperature (F) Relative
Humidity
Wind
Chill
(F)
Heat
Index
(F)
Pressure
Air Dwpt altimeter
(in)
sea level
(mb)
Rmks
8:56 am PDT N 0.0 10.00 Partly Cloudy -- 43.0 15.1 32% NA NA 30.05 1014.6
7:56 am PDT S 6.9 10.00 Fair -- 33.0 14.0 45% 27 NA 30.03 1013.9
6:56 am PDT S 9.2 10.00 Fair -- 28.0 15.1 58% 19 NA 30.04 1014.0
5:56 am PDT N 0.0 10.00 Fair -- 26.0 14.0 60% NA NA 30.04 1014.2
4:56 am PDT NW 6.9 10.00 Fair -- 29.0 15.1 56% 22 NA 30.05 1014.4
3:56 am PDT E 8.1 10.00 Fair -- 29.0 15.1 56% 21 NA 30.04 1014.2
2:56 am PDT S 3.5 10.00 Fair -- 35.0 12.9 40% NA NA 30.04 1014.3
1:56 am PDT S 6.9 10.00 Fair -- 35.0 12.9 40% 29 NA 30.05 1014.4
12:56 am PDT S 8.1 10.00 Fair -- 36.0 12.0 37% 30 NA 30.06 1014.8
11:56 pm PDT S 8.1 10.00 Fair -- 35.0 15.1 44% 28 NA 30.08 1015.4
10:56 pm PDT N 0.0 10.00 Fair -- 33.0 10.0 38% NA NA 30.09 1015.6
9:56 pm PDT N 0.0 10.00 Fair -- 39.0 18.0 43% NA NA 30.08 1015.5
8:56 pm PDT S 6.9 10.00 Fair -- 41.0 16.0 36% 36 NA 30.07 1015.2
7:56 pm PDT S 3.5 10.00 Fair -- 48.0 17.1 29% NA NA 30.07 1014.9
6:56 pm PDT NE 3.5 10.00 A Few Clouds -- 48.0 17.1 29% NA NA 30.07 1015.0
5:56 pm PDT N 4.6 10.00 A Few Clouds -- 55.0 17.1 22% 54 NA 30.06 1014.8
4:56 pm PDT NW 4.6 10.00 A Few Clouds -- 58.0 17.1 20% 58 NA 30.06 1014.9
3:56 pm PDT 3.5 10.00 A Few Clouds -- 58.0 15.1 18% NA NA 30.06 1014.8
2:56 pm PDT SE 3.5 10.00 A Few Clouds -- 57.0 14.0 18% NA NA 30.08 1015.4
1:56 pm PDT E 3.5 10.00 A Few Clouds -- 55.0 12.9 19% NA NA 30.11 1016.3
12:56 pm PDT E 3.5 10.00 A Few Clouds -- 53.0 12.0 19% NA NA 30.14 1017.1
11:56 am PDT N 0.0 10.00 Partly Cloudy -- 50.0 12.0 22% NA NA 30.17 1018.0
10:56 am PDT S 6.9 10.00 Partly Cloudy -- 46.0 12.0 25% 42 NA 30.19 1018.6
9:56 am PDT 3.5 10.00 Partly Cloudy -- 41.0 12.9 32% NA NA 30.21 1019.2

Regional Weather Observation


Reno, Reno Tahoe International Airport, NV (KRNO)

Partly Cloudy
40.0 F

Reno/Stead, NV (KRTS)

Fair
41.0 F

Carson City Airport, NV (KCXP)

Fair
37.0 F

Lovelock, Derby Field Airport, NV (KLOL)

Fair
37.0 F

Truckee-Tahoe, CA (KTRK)

Clear
30.0 F

South Lake Tahoe, Lake Tahoe Airport, CA (KTVL)

Fair
46.0 F